Weather History for KGCC - February, 2014

Change the Weather History Date:

Sunday, February 16, 2014

  Actual Average Record
Temperature  
Mean Temperature 40 °F 27 °F  
Max Temperature 56 °F 38 °F 56 °F (2014)
Min Temperature 23 °F 17 °F 23 °F (2014)
Degree Days  
Heating Degree Days 25 38  
Month to date heating degree days 808 619  
Since 1 July heating degree days 5111 4974  
Cooling Degree Days 0 0  
Month to date cooling degree days 0 0  
Year to date cooling degree days 0 0  
Moisture  
Dew Point 29 °F    
Average Humidity 69    
Maximum Humidity 92    
Minimum Humidity 45    
Precipitation  
Precipitation 0.16 in 0.02 in 0.16 in (2014)
Month to date precipitation 0.62 0.25  
Year to date precipitation 1.01 0.64  
Sea Level Pressure  
Sea Level Pressure 29.67 in    
Wind  
Wind Speed 20 mph (WNW)    
Max Wind Speed 35 mph    
Max Gust Speed 45 mph    
Visibility 6 miles    
Events Fog , Rain , Snow    
T = Trace of Precipitation, MM = Missing Value Source: NWS Daily Summary

Daily Weather History Graph

Daily Weather History Graph

Search for Another Location

Airport or City:

Trip Planner

Search our weather history database for the weather conditions in past years. The results will help you decide how hot, cold, wet, or windy it might be!

Date:

Astronomy

Feb. 16, 2014 Rise Set
Actual Time 7:00 AM MST 5:32 PM MST
Civil Twilight 6:30 AM MST 6:02 PM MST
Nautical Twilight 5:56 AM MST 6:36 PM MST
Astronomical Twilight 5:23 AM MST 7:10 PM MST
Moon 7:38 PM MST (2/16) 7:26 AM MST (2/16)
Length of Visible Light 11h 32m
Length of Day
10h 32m
Full, 97% of the Moon is Illuminated
Feb 16
Full
Feb 22
Last Quarter
Mar 1
New
Mar 8
First Quarter
Mar 16
Full

Hourly Weather History & Observations

Time (MST) Temp. Windchill Dew Point Humidity Pressure Visibility Wind Dir Wind Speed Gust Speed Precip Events Conditions
12:53 AM 35.1 °F 22.5 °F 27.0 °F 72% 29.76 in 10.0 mi South 26.5 mph 31.1 mph N/A   Overcast
1:53 AM 36.0 °F 25.0 °F 28.0 °F 73% 29.73 in 10.0 mi South 20.7 mph - N/A   Overcast
2:53 AM 36.0 °F 25.3 °F 28.0 °F 73% 29.69 in 10.0 mi South 19.6 mph - N/A   Mostly Cloudy
3:53 AM 36.0 °F 26.3 °F 28.0 °F 73% 29.66 in 10.0 mi South 16.1 mph - N/A   Clear
4:53 AM 37.9 °F 29.2 °F 28.9 °F 70% 29.62 in 10.0 mi South 15.0 mph - N/A   Clear
5:53 AM 41.0 °F 33.5 °F 28.9 °F 62% 29.61 in 10.0 mi South 13.8 mph - N/A   Clear
6:53 AM 44.1 °F 34.2 °F 28.0 °F 53% 29.57 in 10.0 mi SSW 28.8 mph 32.2 mph N/A   Clear
7:53 AM 43.0 °F 35.4 °F 28.9 °F 58% 29.56 in 10.0 mi South 16.1 mph - N/A   Clear
8:53 AM 46.9 °F - 28.0 °F 48% 29.52 in 10.0 mi SW 23.0 mph 31.1 mph N/A   Clear
9:53 AM 48.0 °F - 28.0 °F 46% 29.49 in 10.0 mi SW 28.8 mph 38.0 mph N/A   Clear
10:53 AM 50.0 °F - 30.0 °F 46% 29.49 in 10.0 mi SW 28.8 mph 36.8 mph N/A   Clear
11:53 AM 54.0 °F - 33.1 °F 45% 29.44 in 10.0 mi SW 24.2 mph 34.5 mph N/A   Clear
12:53 PM 54.0 °F - 34.0 °F 47% 29.42 in 10.0 mi SW 25.3 mph 31.1 mph N/A   Clear
1:53 PM 55.9 °F - 35.1 °F 45% 29.42 in 10.0 mi SW 19.6 mph 25.3 mph N/A   Clear
2:53 PM 53.1 °F - 32.0 °F 45% 29.44 in 10.0 mi WSW 21.9 mph 27.6 mph N/A   Clear
3:53 PM 41.0 °F 30.7 °F 34.0 °F 76% 29.60 in 7.0 mi NW 25.3 mph 34.5 mph 0.07 in Rain Light Rain
4:22 PM 37.4 °F 26.6 °F 33.8 °F 87% 29.60 in 10.0 mi NNW 21.9 mph - 0.00 in   Overcast
4:53 PM 34.0 °F 20.5 °F 32.0 °F 92% 29.69 in 2.0 mi NNW 28.8 mph 38.0 mph 0.00 in Snow Light Snow
4:55 PM 33.8 °F 21.3 °F 30.2 °F 87% 29.65 in 1.5 mi NNW 24.2 mph 38.0 mph 0.00 in Snow Light Snow
4:59 PM 33.8 °F 20.3 °F 30.2 °F 87% 29.65 in 0.8 mi NNW 28.8 mph 35.7 mph 0.00 in Snow Light Snow
5:07 PM 33.8 °F 21.3 °F 30.2 °F 87% 29.65 in 0.5 mi NNW 24.2 mph 39.1 mph 0.00 in Fog , Snow Light Snow
5:12 PM 33.8 °F 22.2 °F 30.2 °F 87% 29.66 in 0.8 mi NNW 20.7 mph 34.5 mph 0.00 in Snow Light Snow
5:23 PM 33.8 °F 22.5 °F 30.2 °F 87% 29.71 in 1.0 mi NW 19.6 mph - 0.00 in Snow Light Snow
5:33 PM 33.8 °F 23.9 °F 30.2 °F 87% 29.72 in 2.0 mi NW 15.0 mph - 0.02 in Snow Light Snow
5:41 PM 32.0 °F 20.8 °F 30.2 °F 93% 29.73 in 0.8 mi NNW 17.3 mph - 0.04 in Snow Light Snow
5:50 PM 33.8 °F 23.9 °F 30.2 °F 87% 29.73 in 0.5 mi NNW 15.0 mph 23.0 mph 0.06 in Fog , Snow Snow
5:53 PM 32.0 °F 22.1 °F 30.9 °F 96% 29.76 in 0.5 mi NNW 13.8 mph 23.0 mph 0.07 in Fog , Snow Snow
6:00 PM 32.0 °F 20.5 °F 30.2 °F 93% 29.72 in 1.0 mi NNW 18.4 mph 25.3 mph 0.01 in Snow Light Snow
6:14 PM 32.0 °F 21.6 °F 30.2 °F 93% 29.74 in 1.2 mi NW 15.0 mph - 0.02 in Snow Light Snow
6:22 PM 32.0 °F 19.8 °F 30.2 °F 93% 29.74 in 2.0 mi NNW 20.7 mph - 0.02 in Snow Light Snow
6:33 PM 32.0 °F 21.6 °F 30.2 °F 93% 29.76 in 3.0 mi NNW 15.0 mph 26.5 mph 0.02 in Snow Light Snow
6:53 PM 32.0 °F 22.5 °F 30.0 °F 92% 29.79 in 6.0 mi NNW 12.7 mph 21.9 mph 0.02 in Snow Light Snow
7:22 PM 30.2 °F 22.6 °F 28.4 °F 93% 29.77 in 4.0 mi NNW 8.1 mph - 0.00 in Snow Light Snow
7:30 PM 30.2 °F 22.6 °F 28.4 °F 93% 29.78 in 9.0 mi NNW 8.1 mph - 0.00 in   Overcast
7:53 PM 30.0 °F 24.1 °F 28.0 °F 92% 29.82 in 10.0 mi NW 5.8 mph - 0.00 in   Mostly Cloudy
8:53 PM 30.9 °F 19.4 °F 26.1 °F 82% 29.84 in 10.0 mi WNW 17.3 mph - N/A   Overcast
9:53 PM 30.9 °F 19.4 °F 21.0 °F 67% 29.86 in 10.0 mi NW 17.3 mph - N/A   Partly Cloudy
10:53 PM 26.1 °F 16.8 °F 18.0 °F 71% 29.89 in 10.0 mi West 9.2 mph - N/A   Clear
11:53 PM 26.1 °F 16.8 °F 18.0 °F 71% 29.91 in 10.0 mi West 9.2 mph - N/A   Clear